Location: Drouwen
(52.9559°N, 6.7974°E)
Time: 21:21:30
(UTC+00:00)

Cosmos 1833 - Pass Details

Date: 15 May 2026
Orbit: 833 x 865 km, 70.9° (Epoch: 10 June)

Event Time Altitude Azimuth Distance (km) Brightness Sun altitude
Exits shadow 21:44:10 - 201° (SSW) 2,541 6.3 -14.5°
Reaches altitude 10° 21:44:23 10° 201° (SSW) 2,458 6.2 -14.5°
Maximum altitude 21:50:00 73° 118° (ESE) 879 4.1 -14.9°
Drops below altitude 10° 21:55:36 10° 34° (NE) 2,457 7.1 -15.2°
Sets 21:58:03 0° 33° (NNE) 3,393 7.9 -15.3°
